This is the latest recevied weather packets stored in our database for station/object KB9HUO. If no packets are shown the sender has not sent any weather packets the latest 10 day(s).
| Time | Temp. | Humidity | Pressure | Rain* | Wind** | Luminosity | Snow |
|---|---|---|---|---|---|---|---|
| 1778013837 | 16.11° C | 96% | 1008.3 hPa | 7.87 mm | - | 47 W/m² | - |
| 1778013534 | 16.11° C | 96% | 1008.2 hPa | 10.67 mm | - | 36 W/m² | - |
| 1778013230 | 16.11° C | 96% | 1008.2 hPa | 15.49 mm | - | 34 W/m² | - |
| 1778012927 | 16.11° C | 96% | 1008.4 hPa | 10.67 mm | - | 36 W/m² | - |
| 1778012623 | 16.11° C | 96% | 1008.1 hPa | 10.16 mm | - | 37 W/m² | - |
| 1778012320 | 16.67° C | 95% | 1008.4 hPa | 18.03 mm | - | 43 W/m² | - |
| 1778012017 | 16.67° C | 95% | 1008.4 hPa | 18.54 mm | - | 84 W/m² | - |
| 1778011716 | 16.67° C | 95% | 1008.7 hPa | 8.89 mm | - | 44 W/m² | - |
| 1778011412 | 16.67° C | 95% | 1008.6 hPa | 3.05 mm | - | 35 W/m² | - |
| 1778011108 | 16.67° C | 95% | 1008.4 hPa | 1.27 mm | - | 61 W/m² | - |
| 1778010805 | 16.67° C | 95% | 1008.6 hPa | 1.27 mm | - | 46 W/m² | - |
| 1778010502 | 16.67° C | 95% | 1008.5 hPa | 1.27 mm | - | 65 W/m² | - |
| 1778010200 | 16.67° C | 95% | 1008.6 hPa | 1.78 mm | - | 100 W/m² | - |
| 1778009894 | 16.67° C | 94% | 1008.6 hPa | 3.05 mm | - | 94 W/m² | - |
| 1778009593 | 16.67° C | 94% | 1008.8 hPa | 1.27 mm | - | 77 W/m² | - |
| 1778009290 | 16.67° C | 94% | 1008.9 hPa | 0 mm | - | 67 W/m² | - |
| 1778008989 | 16.67° C | 94% | 1008.8 hPa | 1.78 mm | - | 91 W/m² | - |
| 1778008686 | 16.67° C | 94% | 1008.8 hPa | 1.78 mm | - | 85 W/m² | - |
| 1778008384 | 16.67° C | 94% | 1009.1 hPa | 0 mm | - | 102 W/m² | - |
| 1778008080 | 16.67° C | 94% | 1009 hPa | 0 mm | - | 119 W/m² | - |
| 1778007775 | 16.11° C | 94% | 1009.3 hPa | 0 mm | - | 134 W/m² | - |
| 1778007472 | 16.11° C | 94% | 1009.5 hPa | 1.78 mm | - | 127 W/m² | - |
| 1778007168 | 16.11° C | 94% | 1009.5 hPa | 1.78 mm | - | 113 W/m² | - |
| 1778006864 | 16.11° C | 94% | 1009.6 hPa | 0 mm | - | 86 W/m² | - |
| 1778006562 | 16.11° C | 94% | 1009.7 hPa | 0 mm | - | 113 W/m² | - |
* Rain latest hour (hover to see other rain measurements)
** Current wind speed in m/s (hover to see current wind gust speed)